Terminal Aerodrome Forecast
Issued by NWS

Home | Current Version | Previous Version | Text Only | Print | Product List | Glossary On
Versions: 1 2 3 4 5 6 7 8 9 10 11 12 13 14 15 16 17 18 19 20 21 22 23 24 25 26 27 28 29 30
000
FTAK31 PANC 170207 AAA
TAFADQ
TAF AMD
PADQ 170207Z 1702/1724 14013KT 3SM RA BR VCSH SCT020 BKN030 OVC045
     FM170300 10012G22KT 3SM -RA OVC012
     FM170600 11015G25KT 2SM -RA BKN005 OVC012
     FM171500 18008KT 6SM -SHRA BKN035=

USA.gov is the U.S. government's official web portal to all federal, state and local government web resources and services.